Weather History for KLSV - June, 2013

Change the Weather History Date:

Friday, June 28, 2013

  Actual Average (KLAS) Record (KLAS)
Temperature  
Mean Temperature 96 °F 90 °F  
Max Temperature 113 °F 102 °F 115 °F (2013)
Min Temperature 80 °F 78 °F 55 °F (1941)
Degree Days  
Heating Degree Days 0 0  
Month to date heating degree days 0  
Since 1 June heating degree days 0  
Since 1 July heating degree days 1950  
Cooling Degree Days 32 25  
Month to date cooling degree days 598  
Year to date cooling degree days 1148  
Since 1 June cooling degree days 598  
Growing Degree Days 46 (Base 50)    
Moisture  
Dew Point 39 °F    
Average Humidity 13    
Maximum Humidity 22    
Minimum Humidity 6    
Precipitation  
Precipitation 0.00 in 0.00 in 0.11 in (1938)
Month to date precipitation 0.06  
Year to date precipitation 2.07  
Snow  
Snow 0.00 in 0.00 in 0.00 in ()
Month to date snowfall 0.0  
Since 1 June snowfall 0.0  
Since 1 July snowfall 0.3  
Snow Depth -    
Sea Level Pressure  
Sea Level Pressure 29.78 in    
Wind  
Wind Speed 4 mph (SSE)    
Max Wind Speed 7 mph    
Max Gust Speed -    
Visibility 10 miles    
Events      
T = Trace of Precipitation, MM = Missing Value Source: NWS Daily Summary

Daily Weather History Graph

Daily Weather History Graph

Search for Another Location

Airport or City:

Trip Planner

Search our weather history database for the weather conditions in past years. The results will help you decide how hot, cold, wet, or windy it might be!

Date:

Astronomy

Jun. 28, 2013 Rise Set
Actual Time 5:25 AM PDT 8:01 PM PDT
Civil Twilight 4:54 AM PDT 8:31 PM PDT
Nautical Twilight 4:17 AM PDT 9:09 PM PDT
Astronomical Twilight 3:35 AM PDT 9:51 PM PDT
Moon 11:45 PM PDT (6/28) 11:26 AM PDT (6/28)
Length of Visible Light 15h 37m
Length of Day
14h 36m
Waning Gibbous, 65% of the Moon is Illuminated
Jun 28
Waning Gibbous
Jun 29
Last Quarter
Jul 8
New
Jul 15
First Quarter
Jul 22
Full

Hourly Weather History & Observations

Time (PDT) Temp. Dew Point Humidity Pressure Visibility Wind Dir Wind Speed Gust Speed Precip Events Conditions
12:58 AM 91.9 °F 37.0 °F 15% 29.83 in 10.0 mi NE 5.8 mph - N/A   Clear
1:58 AM 88.9 °F 37.8 °F 16% 29.83 in 10.0 mi NNE 5.8 mph - N/A   Clear
2:58 AM 86.5 °F 38.3 °F 18% 29.82 in 10.0 mi NNE 4.6 mph - N/A   Clear
3:58 AM 84.7 °F 38.1 °F 19% 29.83 in 10.0 mi North 2.3 mph - N/A   Clear
4:58 AM 82.4 °F 36.7 °F 19% 29.85 in 10.0 mi WNW 2.3 mph - N/A   Clear
5:58 AM 80.8 °F 37.9 °F 22% 29.86 in 10.0 mi East 2.3 mph - N/A   Clear
6:58 AM 86.9 °F 40.5 °F 19% 29.86 in 10.0 mi NNW 3.5 mph - N/A   Clear
7:58 AM 89.4 °F 41.2 °F 18% 29.88 in 10.0 mi Calm Calm - N/A   Clear
8:58 AM 93.2 °F 41.4 °F 16% 29.88 in 10.0 mi Calm Calm - N/A   Clear
9:58 AM 97.9 °F 42.8 °F 15% 29.87 in 10.0 mi West 1.2 mph - N/A   Clear
10:58 AM 102.4 °F 43.3 °F 13% 29.86 in 10.0 mi SSW 3.5 mph - N/A   Clear
11:58 AM 105.6 °F 41.7 °F 11% 29.84 in 10.0 mi Variable 1.2 mph - N/A   Clear
12:58 PM 106.9 °F 42.6 °F 11% 29.81 in 10.0 mi Variable 2.3 mph - N/A   Clear
1:58 PM 109.2 °F 39.4 °F 9% 29.78 in 10.0 mi SW 4.6 mph - N/A   Clear
2:58 PM 111.0 °F 37.8 °F 8% 29.75 in 10.0 mi Variable 4.6 mph - N/A   Clear
3:58 PM 111.4 °F 35.4 °F 8% 29.72 in 10.0 mi Variable 1.2 mph - N/A   Clear
4:58 PM 113.0 °F 32.9 °F 6% 29.70 in 10.0 mi SSE 6.9 mph - N/A   Clear
5:58 PM 112.5 °F 35.4 °F 7% 29.68 in 10.0 mi South 4.6 mph - N/A   Clear
6:58 PM 111.7 °F 34.9 °F 7% 29.68 in 10.0 mi SSE 4.6 mph - N/A   Clear
7:58 PM 109.4 °F 36.5 °F 8% 29.68 in 10.0 mi SE 5.8 mph - N/A   Clear
8:58 PM 105.3 °F 34.5 °F 9% 29.69 in 10.0 mi South 5.8 mph - N/A   Clear
9:58 PM 99.5 °F 41.2 °F 13% 29.70 in 10.0 mi SSW 3.5 mph - N/A   Clear
10:58 PM 100.0 °F 39.6 °F 12% 29.71 in 10.0 mi ENE 3.5 mph - N/A   Clear
11:58 PM 100.8 °F 38.8 °F 12% 29.71 in 10.0 mi WSW 5.8 mph - N/A   Clear